Vertical_Velocity
-0 0 4 -2 -1 4 -2 -1 1 -10 0 -2 -4 -9 -5 -1 0 0 3 1 1 2 3 4 1 -3 -3 -0 0 -0 -1 -1 2 2 -1 1 1 1 -11 4 -5 -5 -0 19
-2 2 1 -7 9 2 -1 -4 -2 2 -7 1 -0 -3 -6 -1 0 2 0 3 5 3 0 0 2 1 -0 1 3 3 4 5 4 2 2 1 -2 -9 7 -4 -4 -6 8 9
-8 2 5 13 -16 -4 2 -1 3 -2 -8 5 -1 -2 -4 -2 -1 -1 -2 0 1 1 2 2 1 1 -0 -0 0 -0 -0 1 1 -0 0 -0 -2 -3 3 -7 10 12 10 -2
2 10 1 -12 -1 -2 -1 -2 1 -5 -0 2 2 0 1 1 1 -0 2 4 3 1 1 2 1 0 -0 -2 -2 -1 -0 0 0 -1 -3 -3 -6 5 -0 1 10 -2 1 -1
0 -2 -10 2 -10 -4 -1 -22 7 -4 -1 -1 2 2 1 1 4 4 2 -0 -1 0 -0 -1 -2 -2 -1 1 1 -1 -2 -1 -2 -5 -3 -2 -3 1 0 -1 1 1 -0 -1
2 1 -4 -12 -1 -1 0 -36 4 5 4 0 2 -2 2 4 3 1 1 1 0 -1 -4 -4 -1 -0 -0 -1 -1 -1 -0 -1 -3 -2 -2 -3 -1 4 2 -1 -2 -2 1 -0
-2 -1 -8 -3 -2 1 7 -52 -5 -0 1 -2 -5 0 3 3 3 2 -0 -2 -3 -3 -1 -1 -0 0 -1 -1 -1 -2 -2 -2 -1 -1 -4 -1 0 -1 -2 -2 -0 1 2 4
8 7 -9 -3 2 -6 1 -5 -1 -0 0 3 -1 -1 1 1 2 2 -0 -2 -1 -1 0 0 -0 -2 -2 -2 -2 -2 -1 -1 -0 -0 1 1 -0 -0 -2 -2 -1 -1 -2 4
-6 -26 -3 -3 -3 -2 1 -5 -5 -1 -0 2 2 1 3 1 -1 -2 -2 -1 -0 -1 -1 -1 -1 -2 -2 -1 -1 -1 -1 -1 -1 -0 -0 0 0 1 -0 -2 -2 -2 -5 -5
16 -12 -5 -4 -5 1 2 -1 0 -2 1 2 3 1 0 1 1 0 0 0 -0 -0 -1 -1 -1 -1 -2 -4 -2 -2 -1 -2 -1 -1 -2 -1 -2 -2 -1 -3 -1 -2 -3 -7
-9 -10 -6 -7 -6 11 3 -1 1 -2 1 7 5 -0 1 1 -1 -0 1 1 1 -0 0 -0 -1 -2 -1 -1 -1 -1 -0 -1 -0 -0 -1 -0 -1 -1 -1 -4 -5 -4 -4 -8
-32 9 4 4 19 2 -2 1 2 2 0 -3 -1 2 2 0 1 0 -0 -1 -0 0 -0 -1 -1 -0 -1 -2 -1 -0 0 0 0 -1 -0 -0 1 2 1 -0 -1 -2 -3 -4
-13 -15 -4 2 4 -1 2 -2 -3 3 6 5 3 1 5 4 3 1 1 1 1 0 -1 -1 -1 -1 -0 0 -0 -0 1 1 -0 -1 -2 -1 -1 -1 2 4 1 1 -4 -2
1 -13 -2 7 -0 6 -2 -1 -3 1 3 4 5 4 2 1 2 2 0 -0 -1 -0 1 1 -1 0 -0 0 -0 -0 -1 -1 -2 -2 -2 -2 -3 -3 -1 -2 -1 2 4 -2
4 4 4 7 -21 5 3 1 -1 1 1 0 -0 2 2 0 -2 -2 2 -1 0 1 -0 -0 3 0 -1 -0 -1 -1 -2 -2 -2 -2 -2 -3 -4 -4 -4 -4 -3 -2 1 7
-26 0 6 7 5 -5 3 0 -3 1 -0 -0 1 2 1 0 -0 3 2 3 4 1 1 0 -1 0 -1 -1 -2 -2 -2 -2 -2 -2 -1 -2 -2 -3 -3 -4 -6 -6 -6 -9
-4 -17 -2 -6 2 -9 2 3 5 9 6 3 8 5 -0 1 2 1 -1 -1 -1 2 2 1 -2 -1 -2 -2 -1 -1 -2 -2 -1 -2 -2 -3 -3 -3 -4 -6 -6 -5 -5 -6
11 -24 -1 -4 8 14 10 6 4 3 4 5 3 17 10 5 6 3 3 1 -0 -1 -0 -0 -2 -1 -1 -1 -1 -1 -2 -2 -2 -2 -2 -2 -3 -4 -4 -5 -6 -5 -2 -1
20 1 4 5 5 2 4 1 1 3 5 7 11 4 9 2 1 1 -1 -3 -1 -0 -1 -2 -1 -1 -1 -2 -2 -2 -2 -2 -3 -2 -2 -3 -4 -4 -5 -5 -4 -4 -4 -1
-15 8 0 -14 -5 1 2 1 13 11 14 17 7 7 7 2 1 0 2 3 0 -1 -1 -0 -1 -1 -1 -2 -3 -2 -2 -2 -2 -2 -2 -3 -3 -3 -3 -4 -3 -3 -3 -2
-4 -0 4 4 2 3 10 7 5 11 -3 5 6 6 4 4 0 5 3 -0 0 1 1 1 -1 -2 -2 -2 -2 -2 -3 -2 -2 -2 -2 -1 -1 -2 -3 -2 -2 -1 -0 -2
10 9 7 6 4 0 0 2 4 2 1 3 4 1 -4 1 -1 -2 -1 1 2 3 1 -1 -1 -1 -1 -3 -3 -2 -2 -2 -1 -1 -2 -2 -2 -1 -1 -1 -1 -2 -1 -2
4 2 1 4 0 2 2 4 7 4 1 -1 -1 2 2 -1 -2 -2 0 1 1 1 -0 1 1 -1 -1 -2 -2 -2 -1 -1 -1 -1 -2 -2 -1 -1 0 -0 0 -2 -1 -1
2 -1 -1 -2 3 5 4 4 -2 -2 1 3 2 -1 -3 -2 1 1 1 2 2 1 1 1 -1 -0 -0 -1 -1 -1 -0 -1 -0 -0 -1 -1 -1 -1 -2 -3 0 -1 -2 -1
1 0 -1 3 5 1 2 2 -1 -1 3 -1 -2 -2 -2 0 1 2 2 2 1 1 0 -0 -0 -0 -1 -1 -1 -1 -1 -1 -1 -1 -1 -0 -1 -1 -0 -3 -2 -1 -1 -2
-0 5 5 4 3 1 3 3 1 0 -0 1 1 2 4 6 6 5 4 4 3 2 2 1 -0 0 0 0 -0 -1 -1 -0 0 -0 -1 -3 -1 -2 0 -1 -1 -1 -1 -1
1 -0 4 2 -2 3 3 1 -0 -1 -0 1 2 3 3 2 2 2 2 2 2 1 1 0 -0 -1 -1 -1 -1 -1 -1 -1 -1 -0 -1 -1 -1 -0 1 -0 -1 -1 -1 -1
Height
3072 3075 3076 3078 3078 3079 3080 3080 3080 3081 3081 3084 3084 3084 3084 3084 3085 3086 3086 3086 3087 3088 3089 3090 3091 3091 3091 3091 3090 3089 3087 3086 3085 3084 3082 3081 3080 3078 3076 3074 3072 3070 3067 3064
3067 3069 3070 3071 3072 3074 3075 3075 3074 3076 3075 3078 3079 3079 3079 3079 3080 3080 3081 3081 3081 3082 3083 3084 3085 3085 3085 3085 3083 3082 3081 3079 3078 3077 3075 3073 3071 3070 3067 3066 3064 3062 3057 3053
3061 3063 3065 3063 3065 3067 3068 3069 3070 3069 3071 3072 3072 3073 3073 3074 3075 3075 3075 3076 3076 3077 3078 3078 3079 3079 3078 3077 3076 3075 3073 3072 3070 3068 3066 3064 3063 3063 3059 3057 3054 3051 3048 3045
3056 3058 3059 3057 3060 3063 3063 3063 3064 3062 3063 3064 3064 3064 3065 3066 3067 3068 3069 3069 3070 3072 3073 3073 3073 3072 3071 3070 3068 3067 3065 3064 3061 3060 3058 3058 3055 3052 3051 3048 3046 3044 3041 3037
3051 3051 3052 3051 3054 3057 3059 3053 3055 3054 3055 3054 3055 3056 3057 3058 3059 3061 3063 3065 3066 3067 3067 3067 3067 3065 3064 3062 3061 3060 3058 3057 3054 3052 3051 3049 3047 3045 3043 3041 3038 3035 3031 3029
3044 3046 3046 3046 3051 3053 3052 3042 3047 3047 3048 3048 3048 3049 3051 3053 3055 3057 3059 3060 3061 3061 3061 3060 3059 3058 3057 3055 3054 3053 3051 3049 3046 3045 3043 3041 3039 3037 3035 3033 3030 3026 3023 3020
3037 3038 3039 3042 3045 3046 3048 3043 3042 3042 3042 3041 3043 3046 3048 3050 3051 3053 3054 3055 3055 3055 3054 3053 3053 3052 3050 3048 3046 3045 3043 3041 3040 3038 3035 3033 3032 3030 3027 3025 3022 3019 3015 3012
3031 3032 3033 3035 3038 3039 3038 3037 3037 3037 3036 3037 3038 3041 3044 3046 3047 3048 3049 3049 3049 3048 3048 3047 3046 3045 3043 3042 3040 3038 3036 3034 3032 3030 3029 3027 3024 3022 3019 3016 3013 3009 3006 3001
3024 3023 3026 3028 3030 3031 3031 3031 3031 3031 3031 3031 3033 3036 3039 3041 3042 3043 3043 3043 3043 3042 3041 3040 3039 3038 3036 3034 3033 3031 3029 3027 3026 3024 3022 3020 3018 3015 3012 3008 3003 2999 2994 2989
3018 3019 3021 3022 3024 3024 3024 3024 3025 3025 3025 3026 3029 3031 3033 3035 3036 3037 3037 3037 3036 3035 3034 3033 3032 3030 3029 3027 3026 3024 3022 3021 3019 3017 3015 3013 3010 3006 3003 2998 2994 2989 2982 2976
3009 3013 3014 3015 3016 3018 3017 3018 3019 3019 3021 3023 3024 3026 3028 3029 3030 3030 3030 3030 3029 3028 3027 3025 3024 3023 3022 3020 3018 3017 3016 3014 3013 3011 3009 3006 3003 2999 2995 2989 2983 2977 2970 2962
3001 3007 3008 3010 3012 3011 3011 3012 3014 3015 3015 3017 3020 3021 3022 3023 3024 3023 3023 3023 3022 3021 3020 3018 3018 3016 3015 3013 3013 3012 3010 3008 3006 3004 3001 2998 2994 2991 2986 2980 2974 2968 2960 2951
2998 3001 3002 3003 3004 3003 3004 3006 3008 3011 3012 3013 3014 3016 3017 3017 3017 3016 3016 3015 3015 3014 3013 3012 3010 3009 3008 3007 3007 3005 3003 3001 2999 2996 2992 2989 2985 2981 2976 2970 2964 2957 2948 2940
2992 2993 2995 2995 2996 2997 2999 3000 3002 3005 3006 3007 3008 3008 3009 3009 3009 3009 3009 3008 3007 3006 3005 3004 3003 3003 3002 3001 3000 2998 2996 2994 2990 2987 2983 2979 2975 2970 2965 2958 2952 2945 2937 2928
2984 2986 2987 2988 2989 2991 2992 2994 2996 2997 2999 3000 3001 3002 3002 3001 3002 3002 3001 3000 2999 2998 2997 2997 2997 2996 2996 2994 2992 2991 2988 2985 2982 2978 2974 2969 2964 2959 2953 2947 2941 2933 2926 2918
2975 2979 2979 2981 2981 2983 2986 2987 2989 2990 2991 2993 2993 2993 2993 2993 2993 2992 2992 2991 2990 2989 2989 2989 2990 2990 2988 2987 2985 2983 2980 2977 2973 2969 2964 2959 2954 2949 2943 2936 2929 2921 2913 2905
2967 2971 2971 2974 2975 2977 2978 2980 2981 2983 2983 2984 2983 2982 2982 2983 2983 2983 2983 2982 2982 2982 2982 2982 2982 2983 2982 2980 2978 2975 2972 2968 2964 2959 2954 2949 2944 2938 2932 2925 2917 2909 2902 2895
2958 2961 2964 2966 2968 2969 2971 2972 2973 2974 2974 2973 2971 2969 2970 2971 2973 2973 2973 2973 2974 2976 2976 2976 2976 2975 2974 2972 2969 2966 2962 2958 2954 2950 2945 2939 2933 2927 2921 2914 2907 2900 2894 2887
2950 2952 2954 2956 2959 2961 2962 2964 2965 2966 2965 2965 2964 2964 2964 2964 2964 2965 2965 2967 2969 2970 2970 2969 2968 2967 2965 2963 2960 2957 2953 2949 2944 2940 2934 2929 2923 2917 2910 2904 2897 2891 2885 2880
2942 2943 2945 2949 2952 2954 2955 2956 2954 2956 2957 2955 2956 2957 2957 2957 2959 2960 2962 2963 2963 2963 2963 2962 2961 2959 2957 2954 2951 2948 2944 2939 2935 2930 2924 2919 2913 2907 2901 2894 2888 2882 2877 2871
2936 2937 2940 2942 2944 2946 2947 2949 2951 2951 2952 2952 2952 2952 2954 2954 2956 2957 2957 2957 2957 2957 2956 2954 2953 2950 2948 2945 2942 2938 2934 2929 2925 2920 2914 2909 2903 2897 2891 2885 2879 2874 2868 2863
2932 2934 2935 2937 2939 2941 2943 2945 2946 2946 2947 2948 2949 2948 2950 2951 2952 2952 2952 2952 2951 2950 2948 2947 2944 2942 2939 2936 2933 2929 2924 2919 2914 2909 2904 2898 2893 2887 2881 2876 2870 2866 2860 2854
2930 2931 2933 2934 2935 2937 2938 2940 2941 2943 2944 2944 2945 2946 2947 2946 2947 2946 2947 2946 2944 2942 2940 2938 2935 2932 2930 2926 2923 2918 2914 2909 2904 2898 2893 2888 2883 2877 2872 2867 2862 2857 2852 2847
2928 2929 2931 2933 2934 2936 2938 2939 2940 2941 2942 2941 2942 2942 2942 2942 2941 2941 2940 2938 2936 2934 2931 2928 2926 2923 2920 2916 2911 2907 2902 2897 2892 2887 2883 2878 2873 2868 2863 2858 2854 2849 2844 2839
2929 2929 2931 2933 2934 2935 2937 2937 2937 2939 2939 2939 2938 2938 2937 2936 2935 2933 2932 2929 2927 2924 2921 2918 2915 2912 2909 2904 2900 2895 2891 2886 2881 2877 2872 2868 2863 2859 2854 2850 2846 2842 2837 2832
2930 2931 2932 2933 2933 2935 2935 2935 2935 2936 2936 2935 2934 2933 2932 2930 2928 2925 2923 2920 2917 2913 2910 2907 2904 2900 2896 2892 2888 2883 2879 2874 2870 2865 2862 2858 2854 2850 2846 2842 2838 2834 2830 2825
2931 2932 2932 2932 2933 2933 2932 2932 2932 2932 2931 2930 2928 2926 2924 2921 2918 2915 2912 2909 2905 2902 2898 2895 2891 2888 2884 2880 2876 2871 2867 2863 2859 2855 2852 2848 2845 2841 2838 2834 2831 2827 2823 2818